Theta_e
303 305 304 305 305 304 304 303 303 303 302 302 304 303 302 302 302 303 304 305 305 307 309 310 309 309 311 312 313 317 320 320 321 322 322 323 324 324 323 323 323 321 321 322 321 322 322 323 324 323 322 320 318 315 312 312 310 308 311 314 312 311 310 307 307 308 308 310 310 307 304 301 298 298 299 304 309 311 311 310 309 306 303 302 304 303
303 305 306 306 305 305 305 304 303 303 302 302 302 303 302 302 302 302 303 304 305 307 308 309 309 309 310 312 312 314 319 320 320 321 322 322 322 322 322 321 320 318 318 319 319 320 321 323 322 322 321 320 320 317 315 315 312 310 312 314 313 310 308 307 307 308 309 311 310 306 303 299 297 297 298 304 310 311 311 310 308 306 303 302 303 303
305 306 307 306 306 306 305 304 303 302 303 302 302 302 302 302 302 302 303 303 304 306 307 308 307 308 310 312 312 314 318 319 319 321 321 322 321 320 320 319 317 316 316 316 317 319 321 322 322 321 320 320 320 319 318 315 311 311 313 312 312 309 307 308 309 309 310 311 309 304 300 297 296 296 298 304 310 311 311 310 308 306 302 302 303 303
308 308 307 306 306 306 306 304 303 302 303 303 302 303 303 302 302 304 304 304 305 306 308 308 307 307 310 312 312 313 316 318 319 320 321 321 321 320 319 318 317 317 317 316 316 318 319 320 320 320 320 320 319 319 318 313 311 313 313 312 311 309 309 309 309 310 311 311 307 301 298 297 296 296 297 303 310 312 311 310 308 305 302 302 303 303
308 308 307 307 307 307 306 306 304 303 303 303 303 303 303 302 302 303 304 304 306 307 307 308 307 307 309 311 312 313 316 318 319 319 320 321 320 320 318 316 317 318 318 317 316 317 318 319 320 320 320 320 319 319 316 314 315 316 313 312 312 312 312 311 310 310 311 310 305 300 298 297 296 296 299 305 311 312 311 309 308 305 303 302 303 303
308 308 307 308 308 307 307 307 305 304 305 304 304 303 303 302 302 303 303 303 305 306 307 307 306 307 310 311 312 314 316 317 318 319 319 320 319 318 316 315 316 316 316 317 317 318 318 319 319 319 320 319 319 318 315 316 318 317 314 313 313 313 313 312 311 311 311 310 305 300 298 297 297 297 301 307 311 311 311 309 308 306 302 302 303 303
308 307 307 308 307 307 306 306 306 305 305 306 306 305 303 302 303 303 303 304 305 306 307 308 307 307 311 312 311 314 316 316 318 319 318 319 318 317 316 315 316 316 315 315 316 318 319 319 319 320 320 320 319 317 316 317 318 316 315 314 314 314 313 312 311 312 311 309 305 301 298 296 297 298 301 307 311 312 311 309 308 306 303 302 303 303
310 309 309 308 307 307 307 307 307 306 306 307 308 308 304 303 303 303 304 305 305 306 307 307 307 308 310 312 313 314 315 317 318 319 318 318 317 317 316 316 316 316 316 315 316 317 319 319 320 321 321 320 319 317 318 318 317 317 315 314 314 315 314 313 312 312 310 308 305 301 297 296 297 298 300 305 310 311 310 309 308 306 304 303 303 303
310 311 311 309 308 307 308 307 307 306 306 308 309 308 306 304 304 303 304 305 306 307 308 308 308 308 309 312 315 314 315 316 317 318 319 318 317 316 316 316 316 316 316 317 317 318 319 320 321 321 321 320 319 319 319 319 318 317 316 315 314 314 314 313 312 312 310 308 306 301 297 296 296 298 301 306 311 311 310 309 308 307 306 305 304 303
308 309 308 307 308 309 309 308 306 305 307 308 307 308 307 304 304 305 305 306 307 307 308 309 308 308 310 313 315 315 315 316 317 318 318 318 317 317 316 315 316 315 316 317 318 319 320 320 320 320 319 319 319 319 319 319 319 318 317 316 314 314 314 313 312 311 309 308 305 302 300 298 297 299 303 308 312 311 310 310 308 307 307 306 306 305
306 306 306 306 307 308 308 307 305 305 306 307 307 308 309 307 306 306 306 307 308 309 310 309 309 309 311 314 315 315 315 315 317 319 319 318 317 317 317 316 315 315 315 317 318 318 318 318 318 319 319 318 319 319 319 319 320 319 317 316 315 315 314 312 311 310 309 306 303 303 302 299 298 300 304 310 312 312 311 310 309 308 307 307 307 306
307 308 307 306 306 306 307 307 306 305 305 306 307 309 311 310 309 309 309 309 309 311 311 310 310 309 311 314 315 314 315 316 317 319 319 318 317 317 317 316 316 316 316 317 317 316 316 316 317 318 318 318 318 319 319 320 319 318 317 316 315 315 314 312 311 311 310 306 303 303 301 298 299 301 305 310 312 311 311 310 309 308 307 307 307 308
312 312 309 307 306 305 308 309 308 307 306 306 307 309 311 312 312 312 312 311 311 311 312 311 311 311 312 315 316 314 316 318 317 318 318 318 318 317 316 316 315 316 316 316 316 317 316 317 318 318 318 318 318 319 319 319 320 319 318 316 315 316 315 313 312 313 312 308 304 301 300 301 302 302 305 309 310 311 310 310 309 309 307 307 308 308
313 314 311 311 309 305 307 310 309 309 308 308 308 309 312 313 313 314 313 313 313 313 313 312 311 313 315 316 316 316 315 315 315 317 318 318 318 317 316 315 315 315 315 315 316 317 317 317 318 318 319 319 319 319 319 319 320 319 318 317 316 316 316 314 314 315 312 308 304 301 302 304 305 304 306 308 310 310 310 310 309 309 308 307 307 308
311 313 313 313 310 307 308 310 310 309 308 308 308 309 312 314 314 315 315 316 316 315 314 312 312 315 317 315 314 312 310 310 313 316 318 318 318 317 316 315 315 314 314 315 316 316 317 317 318 319 319 320 320 319 319 319 320 319 319 318 317 316 316 315 315 316 313 309 305 302 303 306 306 305 306 308 309 310 309 310 309 309 308 308 307 307
309 312 313 310 309 309 310 309 308 308 309 308 307 309 311 311 311 313 315 314 315 317 316 314 314 315 314 313 311 309 309 310 313 316 318 318 317 317 316 316 315 315 315 315 315 316 317 317 318 319 320 320 321 320 320 319 319 319 319 319 319 317 316 316 317 317 314 312 308 304 304 307 307 307 307 307 309 310 310 310 310 309 308 308 308 307
308 311 311 309 308 309 308 308 306 307 309 308 308 310 309 306 307 312 315 314 314 317 316 315 316 314 313 313 311 311 315 315 314 315 316 317 317 317 316 316 316 316 316 316 316 316 317 318 318 319 319 320 321 320 320 320 319 319 319 319 319 318 317 317 317 317 315 314 310 307 308 309 309 308 308 307 309 310 310 310 310 309 308 308 309 308
306 308 308 309 311 308 304 305 306 305 305 307 309 308 306 306 307 310 315 317 316 317 316 314 315 314 314 315 312 312 315 315 314 315 315 315 317 317 316 316 316 316 316 315 315 316 317 318 319 319 320 320 320 320 320 320 319 318 319 319 320 319 318 317 318 317 316 314 312 312 312 312 311 310 309 308 308 309 310 311 310 309 308 307 308 309
305 306 308 309 311 309 305 306 307 305 304 305 306 306 306 309 311 310 314 317 317 318 316 314 314 314 314 314 311 310 311 312 314 315 315 316 316 316 316 316 316 316 315 314 314 316 316 317 318 319 319 319 319 319 319 319 319 318 319 319 319 319 318 317 318 318 316 315 314 315 315 314 313 312 311 309 308 309 310 311 311 309 307 307 308 309
304 306 310 310 307 307 308 309 308 306 305 304 305 304 305 307 309 309 310 312 314 317 316 315 315 315 313 311 310 309 307 308 311 314 316 316 315 316 316 316 316 315 315 314 313 315 316 317 317 317 318 318 318 319 319 319 319 318 319 319 319 318 317 317 318 318 317 316 315 316 315 314 314 312 312 311 310 309 310 311 311 309 307 306 307 308
302 305 309 309 306 307 308 307 306 306 306 306 305 304 304 305 306 308 308 307 309 315 317 316 316 314 310 310 309 306 305 306 307 311 316 316 315 316 316 315 316 315 314 314 313 314 316 316 316 316 317 317 317 318 319 319 319 319 319 319 319 319 318 318 318 318 318 317 317 316 315 315 313 312 312 312 312 310 310 311 311 309 307 307 307 307
303 305 306 306 306 309 309 304 302 304 304 305 305 304 303 304 306 309 311 308 307 311 313 314 318 314 308 308 307 304 304 305 305 308 314 317 316 316 316 316 316 315 315 314 314 315 315 314 315 316 316 317 317 318 318 318 319 319 319 319 319 319 318 318 319 319 319 319 318 317 316 315 314 312 312 314 313 312 311 311 311 309 309 308 306 306
300 302 304 305 305 307 307 300 297 299 301 302 303 303 303 303 304 308 312 311 308 308 308 310 316 314 307 305 306 303 302 303 303 304 310 317 317 316 317 316 316 316 315 315 314 315 315 314 314 315 316 317 317 317 318 319 319 319 319 319 319 319 319 319 319 319 319 319 319 318 318 317 316 314 314 314 314 314 313 312 311 310 310 309 306 305
300 301 302 305 307 306 304 300 297 297 300 303 303 302 303 302 303 305 307 307 308 309 309 312 318 314 307 306 304 302 303 304 305 306 310 317 318 317 317 316 316 316 315 316 316 315 315 314 313 314 316 317 317 317 318 319 319 320 320 319 319 320 320 319 319 319 319 319 319 319 319 319 318 317 315 315 315 315 314 313 312 311 311 310 309 306
302 304 303 305 308 308 307 306 303 302 303 304 303 302 303 301 301 304 304 305 309 308 306 312 318 313 309 308 306 304 306 307 307 309 313 317 317 317 317 316 316 316 315 316 316 316 316 315 314 315 317 317 317 318 319 320 320 320 320 320 320 320 320 319 319 319 319 319 320 320 319 320 319 319 318 317 315 315 315 314 313 313 312 312 311 307
301 303 303 304 306 305 306 307 306 304 303 303 303 302 302 300 300 304 306 308 311 308 304 309 313 311 309 309 307 305 306 307 307 309 312 315 316 317 317 317 317 316 316 316 316 316 317 316 315 316 318 318 318 319 319 320 321 322 321 321 321 321 320 320 319 319 319 319 320 320 320 320 320 320 320 318 316 315 316 315 314 314 313 313 312 308
300 300 302 305 306 304 304 305 302 301 302 304 304 301 300 299 299 303 308 310 310 309 308 308 307 308 310 308 306 305 304 306 306 306 308 310 313 315 316 317 317 317 317 317 317 317 317 316 317 317 319 319 319 320 320 320 321 322 322 322 321 321 320 320 319 319 319 319 320 320 320 320 320 320 320 319 316 314 314 315 315 314 313 313 313 309
301 302 300 302 305 303 303 303 299 298 301 302 302 301 300 299 300 305 310 309 307 309 312 309 305 308 309 306 305 305 304 305 305 303 304 306 309 313 315 316 317 318 318 318 318 318 318 318 318 318 319 320 320 320 321 321 321 321 322 322 321 321 320 320 320 320 320 320 320 319 320 320 320 320 320 319 317 313 312 313 314 314 314 314 313 310
301 304 298 297 303 301 299 299 298 298 299 299 300 302 300 299 302 307 308 304 304 310 312 309 306 308 308 306 306 306 304 303 302 301 302 304 307 311 314 315 316 317 317 318 318 318 318 319 319 319 320 320 320 321 321 321 321 322 322 322 321 321 321 320 320 319 319 319 319 320 320 320 320 320 321 320 319 316 313 312 313 314 314 314 313 311
299 305 298 294 301 302 297 295 295 297 299 301 303 302 300 300 301 304 305 302 304 307 308 307 307 307 307 307 306 304 302 301 301 301 302 303 305 308 311 313 315 315 316 316 317 318 318 318 319 319 319 320 320 321 321 321 322 322 322 322 322 321 321 320 320 319 320 320 320 320 320 320 320 321 321 321 320 319 314 312 312 313 313 314 313 312
298 304 300 296 303 307 300 295 296 296 298 304 308 305 301 301 301 303 304 304 305 307 306 306 307 307 306 304 302 302 301 301 302 302 302 302 303 305 307 308 310 313 314 315 315 316 316 317 318 318 318 319 320 320 321 321 321 321 321 321 321 321 320 320 320 320 320 320 321 321 320 320 320 321 321 321 321 319 315 313 313 313 313 314 314 312
300 302 301 300 305 310 305 298 298 297 297 304 310 306 302 302 301 301 302 303 306 308 308 307 308 309 306 302 301 301 301 301 301 301 302 302 303 303 305 305 306 309 312 313 314 315 316 316 317 317 318 318 319 319 319 319 319 320 320 320 320 320 320 320 320 320 320 320 320 319 319 319 319 320 320 320 320 318 315 313 312 312 313 314 314 313
299 300 302 300 303 314 310 300 300 305 306 309 309 302 299 300 300 299 300 301 303 305 309 310 309 307 305 302 302 302 301 300 301 300 301 302 302 302 304 305 305 306 309 312 314 315 315 316 316 316 316 317 317 317 318 318 318 318 318 318 318 318 318 319 319 319 319 319 318 318 317 318 318 318 319 319 318 317 315 313 313 313 313 314 314 313
298 300 301 297 301 314 311 301 304 311 309 307 304 299 299 299 299 300 300 300 301 302 304 306 305 306 305 304 303 303 301 300 300 299 299 300 301 301 302 303 303 303 305 308 312 314 315 316 316 317 316 316 316 316 316 316 316 316 316 316 316 316 316 317 317 317 317 317 317 316 316 316 316 316 317 317 317 316 315 314 314 314 314 314 314 313
300 301 300 296 299 307 307 306 309 310 309 306 300 297 297 296 296 299 300 300 301 301 302 305 307 307 303 301 300 300 299 299 299 299 299 299 299 300 299 300 300 301 303 305 308 312 313 314 315 316 316 316 316 316 315 315 315 315 315 315 315 315 315 315 315 315 315 315 315 315 315 315 315 315 315 315 316 316 316 316 316 315 315 315 315 313
300 301 300 299 300 302 304 306 306 305 306 305 300 296 295 295 297 300 302 302 302 302 304 308 309 304 298 298 299 299 299 300 299 299 300 299 299 299 299 300 300 301 302 303 304 307 309 310 312 313 314 315 315 315 315 315 315 315 315 315 315 315 315 314 315 315 314 314 314 313 314 314 314 314 315 316 317 318 318 318 317 317 316 315 315 313
297 300 300 299 300 300 301 306 310 307 304 305 304 299 296 298 299 301 303 302 300 300 302 305 307 302 297 298 300 298 299 301 300 300 300 299 300 300 300 300 300 300 301 301 302 303 304 306 307 308 310 311 311 312 312 313 314 314 314 315 315 315 315 315 315 315 315 314 313 313 313 314 315 316 317 318 319 319 319 319 318 318 317 316 315 314
293 297 299 300 301 300 299 303 311 311 307 308 306 299 296 297 295 297 305 308 301 297 298 301 304 301 298 299 299 299 302 303 302 301 300 300 300 300 300 300 300 300 300 300 301 302 302 303 303 304 305 305 306 307 308 308 309 309 310 311 312 313 314 315 315 315 315 315 314 314 314 316 317 317 318 319 319 320 320 319 319 318 317 316 315 314
292 295 299 303 305 302 300 301 304 305 306 307 304 298 296 295 293 296 308 313 305 298 297 299 301 299 298 299 299 301 306 306 303 301 301 300 300 300 300 300 300 300 300 300 301 301 301 302 302 302 302 302 303 304 304 304 305 305 305 306 307 308 309 310 311 313 315 316 315 315 316 317 318 318 319 319 319 319 319 318 319 318 317 316 315 314
298 300 300 302 304 303 302 303 304 304 305 303 300 298 295 293 295 302 311 312 305 300 299 300 300 299 299 299 299 302 306 305 302 301 301 300 300 300 300 300 300 300 300 300 301 301 301 301 301 301 302 301 302 302 302 303 303 303 303 303 304 304 304 305 306 309 313 314 315 315 316 317 318 318 318 319 319 319 319 318 318 318 317 316 315 315
302 301 298 299 305 305 305 306 304 304 303 300 298 297 294 294 301 309 310 306 302 300 300 301 300 300 300 300 300 302 303 301 301 301 301 300 300 300 300 300 300 301 300 300 301 301 301 301 301 301 301 301 301 301 301 302 302 302 302 302 302 303 302 303 305 307 309 311 313 314 315 316 316 317 317 318 317 317 317 317 317 317 317 317 316 316
303 302 297 298 303 304 304 306 306 304 300 297 297 296 294 298 307 310 305 301 300 300 301 301 301 301 301 301 301 301 301 300 300 300 300 300 300 300 300 300 300 300 300 301 300 301 301 301 301 301 301 301 301 301 301 301 301 301 301 301 301 302 301 302 303 305 306 308 309 311 313 314 315 315 315 316 316 316 316 316 316 316 316 316 316 316
302 303 303 302 301 300 300 301 304 306 302 296 298 299 298 301 305 303 301 300 300 301 301 301 301 301 301 301 301 300 300 300 300 300 300 300 300 300 300 300 300 301 301 301 301 301 301 301 301 301 301 301 301 301 301 301 301 301 301 301 301 301 301 302 303 304 305 306 307 308 309 311 312 313 314 315 315 315 315 315 315 316 316 316 315 315
302 303 307 306 301 302 307 308 306 306 302 298 299 301 300 300 301 299 300 301 301 301 301 301 301 301 300 300 300 300 300 300 300 300 300 300 300 300 300 301 301 301 301 301 301 301 301 301 301 301 301 301 301 301 301 301 301 301 301 301 300 300 301 301 302 303 304 305 306 306 307 307 308 310 311 312 313 314 314 315 315 315 315 315 315 315
302 300 303 303 300 303 310 313 307 301 299 298 299 301 301 300 300 300 301 301 301 301 301 301 301 301 300 301 300 300 300 300 300 300 300 300 300 300 300 301 301 300 301 301 301 301 301 301 301 301 301 301 300 301 301 301 301 301 300 300 300 300 300 301 301 301 302 303 304 304 305 306 306 307 307 308 309 310 311 312 313 314 314 314 314 314
296 294 296 300 303 302 301 302 298 297 299 300 299 300 301 301 300 301 301 301 301 301 301 301 301 301 301 301 301 301 301 301 300 300 300 300 301 301 301 301 301 301 301 301 301 301 301 301 301 301 301 302 302 302 302 302 302 302 301 301 301 301 301 301 300 301 301 301 301 302 303 304 304 305 306 306 306 307 307 308 309 310 311 311 311 312
295 293 297 301 303 303 304 304 299 298 300 300 299 301 302 301 301 301 301 302 302 301 302 301 301 301 301 300 301 301 300 301 301 300 300 301 301 301 301 301 301 301 301 301 301 301 301 301 301 301 302 302 302 302 302 302 302 302 302 302 302 301 302 302 301 301 301 301 300 300 300 301 301 302 303 304 304 305 306 306 307 307 307 307 307 308
296 294 299 303 301 301 305 305 299 298 300 300 300 302 302 301 303 302 301 302 302 302 302 301 300 301 301 300 301 301 300 301 300 300 301 300 300 301 301 301 301 301 301 301 301 301 301 301 302 302 301 301 301 301 301 301 301 301 301 302 302 302 302 302 302 302 302 301 301 301 300 300 300 300 300 301 301 302 302 303 304 304 305 305 305 305
295 296 300 301 300 301 303 302 299 300 302 301 301 303 302 301 302 301 301 302 302 302 302 301 301 301 301 301 301 300 300 301 300 300 301 300 300 301 300 301 301 301 301 301 301 301 301 301 301 301 301 301 300 301 301 301 301 301 302 302 302 303 303 303 302 302 302 302 302 302 301 301 300 300 300 300 300 300 300 300 300 301 301 302 302 302
295 300 299 297 302 305 305 303 301 302 303 302 302 302 302 302 302 301 302 302 302 302 302 301 301 301 301 301 301 300 300 301 301 300 301 301 301 301 300 301 301 300 300 301 300 301 301 301 301 301 301 301 301 301 301 301 301 301 301 301 302 303 303 304 304 304 304 303 302 302 302 302 301 301 300 300 299 299 299 299 299 299 300 300 300 300
297 300 299 300 305 306 303 302 302 301 302 303 302 302 302 302 302 302 302 302 302 302 302 301 301 301 301 301 301 300 301 301 301 301 301 301 301 301 301 301 301 300 300 300 300 300 300 300 301 301 301 301 301 301 302 301 301 301 301 301 302 303 303 304 305 306 306 305 304 303 302 302 302 302 302 301 300 300 299 299 299 299 299 299 299 299
Wind_Speed
3 2 3 6 9 9 9 11 13 12 8 4 2 3 5 5 7 5 6 5 1 1 5 6 8 7 9 10 11 14 14 16 19 19 20 22 22 25 31 35 37 37 37 39 39 40 40 41 43 43 42 41 41 42 42 42 43 41 37 36 36 35 34 32 30 28 24 21 20 19 16 14 11 9 7 5 4 2 2 3 5 7 8 7 6 6
3 3 9 12 11 11 10 9 11 11 8 5 4 5 6 7 9 8 6 6 2 1 5 6 7 7 8 9 12 15 12 13 19 19 19 21 20 24 31 33 33 32 34 37 37 38 39 41 41 41 41 41 41 42 42 43 43 39 37 37 35 35 35 32 30 27 22 20 19 17 14 12 10 10 8 6 5 2 2 3 5 7 7 6 6 6
2 7 14 15 10 8 9 7 9 11 10 7 6 5 7 5 5 8 7 6 2 2 5 8 8 8 8 9 11 14 12 14 21 20 20 22 19 23 30 31 31 31 31 33 35 38 39 40 41 41 40 40 40 41 41 42 39 36 37 38 36 36 35 32 29 24 20 19 18 16 14 11 11 10 8 7 5 3 2 3 5 6 6 5 5 6
4 8 10 11 8 6 8 8 8 9 8 7 6 6 9 6 3 5 5 2 3 5 5 6 6 6 7 8 9 14 16 16 19 21 22 24 23 25 31 33 35 36 35 33 35 37 38 39 40 40 40 40 40 40 41 40 36 34 37 38 37 36 33 31 27 23 21 20 19 17 15 12 12 11 10 8 5 3 2 3 5 6 6 5 5 5
10 15 11 8 6 6 9 8 8 7 5 7 9 9 11 8 6 7 4 2 1 3 6 4 4 5 5 8 7 9 14 13 15 18 19 22 23 24 28 31 34 37 38 37 36 36 38 39 40 40 40 40 40 40 40 37 34 35 37 36 35 32 30 28 25 23 22 21 20 18 16 14 14 13 10 7 5 3 3 3 4 5 5 4 5 5
11 14 8 5 5 4 7 7 7 8 5 6 10 13 15 10 7 8 3 3 3 3 5 5 2 4 4 9 8 5 9 11 12 13 15 18 19 20 25 29 31 33 34 35 37 37 38 39 40 40 40 40 40 40 38 35 35 36 35 35 33 31 29 27 24 22 22 22 21 18 15 14 13 11 8 5 4 3 3 4 4 4 4 4 4 5
6 5 1 2 4 4 7 7 7 8 5 5 6 12 16 11 8 8 3 2 2 3 2 5 4 4 2 6 9 8 10 11 10 9 11 17 20 21 26 29 31 33 32 32 34 36 37 38 39 40 40 40 39 38 36 36 36 35 33 32 30 29 28 26 23 22 24 24 21 18 15 13 10 8 6 5 5 3 3 4 3 3 3 4 4 6
3 3 2 2 3 4 5 6 6 8 6 4 1 8 12 11 11 9 6 5 4 3 2 4 6 3 3 5 7 10 11 11 11 9 9 16 20 22 26 30 32 34 34 33 34 35 37 38 39 40 40 40 38 36 36 37 36 34 33 32 30 28 27 25 22 22 25 24 21 19 16 13 10 8 7 8 7 4 3 3 2 2 2 4 5 6
1 2 3 2 2 3 4 5 4 6 7 3 1 4 8 9 9 7 6 6 5 3 3 5 6 3 4 3 5 10 12 12 13 13 10 15 20 21 25 29 30 32 33 34 35 35 36 37 38 39 38 37 36 35 36 36 34 34 33 32 31 29 27 25 23 24 26 23 21 19 17 14 12 10 10 11 9 7 5 3 2 1 2 4 6 7
4 4 2 2 2 4 5 5 4 7 8 2 3 1 4 4 5 5 5 5 4 4 5 5 7 4 3 2 5 9 11 12 12 11 10 16 22 23 24 28 28 30 31 32 33 34 35 36 37 36 35 35 34 34 34 32 32 33 32 31 30 28 28 27 25 26 27 23 22 22 20 16 13 12 13 12 10 8 6 4 3 2 2 4 6 7
12 9 2 3 6 5 3 5 5 9 9 3 3 2 3 3 4 4 4 4 3 4 5 6 9 6 2 2 6 7 9 11 10 9 10 13 20 22 24 27 29 30 31 30 31 31 32 33 32 31 31 31 30 30 29 29 31 32 31 30 28 28 29 28 28 28 27 24 23 23 20 17 15 15 15 13 11 9 7 5 3 2 1 3 5 7
10 6 2 5 7 4 2 4 4 7 8 5 2 2 2 2 3 2 3 3 3 4 4 6 11 8 4 3 5 6 7 10 10 9 10 12 17 22 25 28 30 30 30 29 30 30 31 30 28 27 27 28 27 27 27 29 31 31 31 31 29 29 30 29 29 28 26 25 24 23 20 18 17 17 16 15 13 11 8 7 5 3 2 1 4 7
5 3 2 3 3 4 2 3 2 2 3 4 2 2 2 1 1 2 2 2 3 4 3 5 9 6 4 4 4 7 7 9 10 12 15 18 23 26 27 29 30 29 29 30 30 30 30 29 28 27 28 27 27 27 27 29 29 30 31 31 31 31 30 30 30 27 26 26 25 23 21 20 19 19 18 17 15 14 12 10 7 5 4 2 2 6
5 3 2 2 1 4 3 2 2 1 1 3 3 2 2 2 2 2 2 2 3 3 1 5 6 2 2 2 4 7 6 5 10 14 18 20 22 24 25 27 28 28 29 30 30 30 29 29 28 28 27 25 25 26 27 28 29 30 31 31 31 31 30 31 29 27 27 27 25 23 22 21 20 19 19 18 17 15 14 13 10 8 6 5 2 4
3 4 2 2 1 3 3 2 1 2 3 3 2 2 2 1 1 2 2 1 1 1 2 6 4 2 2 1 3 5 3 1 6 11 15 17 18 20 21 24 25 26 27 28 29 29 29 28 27 26 25 24 24 26 26 28 29 30 30 31 32 31 31 32 30 28 28 27 25 24 23 22 21 19 19 19 18 17 17 16 13 10 9 7 4 2
2 6 5 4 3 5 3 2 3 2 2 1 1 2 2 1 0 2 2 2 1 1 2 4 2 1 1 0 4 3 0 3 6 11 17 19 20 22 22 24 26 26 27 28 29 29 28 27 26 24 24 24 25 26 27 29 30 30 30 31 31 31 33 33 31 30 29 27 26 25 24 23 21 20 20 20 20 20 19 17 15 13 11 8 6 3
2 6 7 5 3 3 2 2 2 1 2 1 1 1 2 1 1 2 2 2 0 1 0 1 0 2 1 1 4 4 4 4 5 10 16 20 23 24 24 26 28 28 28 29 29 29 27 26 25 24 24 26 27 27 27 29 30 30 30 30 30 31 34 34 32 31 29 28 28 27 26 25 23 22 21 20 21 21 20 18 17 16 14 10 7 5
2 7 8 3 2 0 3 3 1 1 1 2 2 2 2 2 1 2 2 1 1 1 1 2 2 2 1 1 3 5 5 3 3 6 10 17 22 22 23 26 27 28 28 28 28 29 28 26 24 24 25 27 28 27 27 29 30 30 30 29 30 33 35 34 32 31 29 29 29 27 26 26 24 22 20 21 22 21 20 20 18 17 15 11 8 7
1 5 7 2 2 3 2 3 1 1 2 2 1 2 2 1 1 1 1 1 1 0 1 2 3 2 0 1 2 3 3 2 2 5 7 11 17 19 20 23 25 25 26 27 28 29 29 28 27 26 26 27 27 27 27 28 29 30 29 29 31 34 35 34 32 31 29 29 28 25 24 24 24 23 22 23 23 22 22 21 19 18 16 13 10 8
1 2 5 3 3 3 1 1 1 2 1 1 1 1 1 1 1 1 1 1 1 1 1 1 3 2 1 1 1 1 1 2 1 3 5 9 15 17 19 21 23 24 25 27 28 28 28 27 26 26 26 26 27 27 27 27 29 30 29 30 33 35 36 35 33 31 29 28 26 25 24 24 25 25 24 23 23 23 23 22 20 19 17 15 13 10
1 1 4 6 4 2 1 1 0 1 1 1 2 3 2 2 1 0 1 1 0 1 1 1 1 2 2 2 2 2 2 0 1 1 2 8 14 16 17 19 21 23 24 25 26 25 24 24 25 25 26 26 26 26 26 27 29 29 30 31 34 36 36 35 33 31 29 28 27 25 25 25 25 25 24 24 24 25 24 23 22 20 19 17 15 13
0 1 3 6 6 2 2 0 1 2 1 1 0 2 2 2 1 1 1 0 1 0 1 3 1 3 2 1 3 3 2 1 1 1 1 8 14 15 16 18 19 21 22 23 23 22 22 23 24 24 25 26 26 26 25 26 27 29 30 31 33 35 36 35 33 31 30 28 27 26 25 24 24 23 23 25 26 26 25 24 23 22 21 19 17 14
1 0 2 5 6 4 1 2 1 0 2 2 1 1 1 1 1 1 1 1 1 0 1 1 1 1 1 1 3 4 4 4 3 2 2 8 14 15 15 16 17 18 19 20 20 20 19 21 22 22 23 24 25 25 24 25 26 28 29 30 32 34 35 34 33 31 29 28 27 26 25 23 23 22 23 25 27 26 26 25 24 23 22 21 19 17
1 1 2 5 6 3 2 2 2 2 2 2 1 1 1 1 2 3 1 2 1 1 2 1 2 2 1 3 4 5 5 4 1 1 2 8 13 15 15 15 15 15 16 17 18 18 18 18 19 19 21 23 24 24 23 24 25 27 28 29 31 33 34 34 33 31 29 29 28 27 25 23 23 23 24 25 25 26 26 26 25 24 23 22 21 19
1 1 2 4 6 5 5 4 3 2 1 1 2 2 1 2 3 3 1 1 1 1 1 1 2 1 3 4 5 6 5 6 6 5 3 8 12 14 14 14 14 14 15 17 17 18 18 18 17 18 19 21 22 22 22 23 25 26 27 28 30 31 32 33 33 32 31 30 29 28 26 25 24 24 24 25 24 24 25 26 26 25 25 24 23 21
1 2 0 2 2 4 4 4 3 4 4 3 3 2 0 2 3 2 2 1 1 1 1 2 1 1 4 6 7 8 6 6 7 8 6 6 10 13 14 14 14 14 14 16 16 17 17 17 15 15 16 18 19 21 22 24 25 26 27 28 29 30 31 32 33 32 31 31 30 30 29 27 26 25 25 25 25 25 25 25 27 27 27 25 24 23
2 1 1 4 4 5 6 6 3 3 4 5 7 8 5 2 2 2 1 1 1 2 2 1 1 2 5 8 8 8 7 5 5 7 8 6 6 8 11 12 13 12 12 13 14 15 15 15 14 13 13 14 15 17 20 23 26 27 28 29 30 30 30 30 30 31 32 31 32 32 30 29 28 27 26 27 27 27 26 25 26 27 27 26 24 24
2 2 2 3 6 9 9 8 3 2 3 5 7 9 8 5 3 1 2 2 2 2 2 1 2 2 4 6 7 7 6 4 5 7 8 7 6 6 7 9 11 11 12 13 13 14 14 14 14 13 12 12 12 14 17 20 23 25 26 27 27 28 27 27 29 32 33 33 33 32 30 29 28 27 27 28 28 28 28 26 26 27 27 26 26 26
2 3 2 1 7 10 8 7 4 1 4 5 5 7 7 6 4 3 3 3 3 2 1 2 4 3 2 5 6 5 5 5 6 7 7 6 5 5 5 6 8 10 12 13 14 14 15 15 15 14 12 11 12 14 15 17 19 21 23 24 25 25 26 27 29 31 32 32 32 30 29 28 27 26 27 28 28 29 28 27 26 27 27 27 27 26
3 3 2 1 8 9 4 4 2 1 3 4 4 6 6 5 1 2 1 3 3 2 1 3 3 3 3 3 5 6 8 9 9 7 6 5 4 3 4 4 6 8 10 11 13 14 15 15 15 14 13 12 13 14 15 17 19 21 23 24 25 26 26 27 28 29 30 30 29 29 28 28 27 27 28 29 29 29 29 26 25 26 27 27 27 26
2 3 1 2 5 8 3 1 1 2 4 4 5 5 3 2 1 2 1 1 2 2 3 3 3 3 3 4 6 9 11 11 10 8 8 6 4 2 2 2 5 6 7 9 10 11 13 14 14 14 13 13 13 14 15 16 17 18 20 21 23 23 23 24 26 27 28 28 28 27 27 28 28 29 30 30 29 29 29 26 25 25 26 27 27 26
4 3 2 5 5 7 3 4 5 3 2 2 5 5 3 1 0 1 1 1 2 1 2 4 3 1 3 5 7 9 11 11 10 8 7 6 5 3 1 1 3 5 5 6 8 10 11 12 12 12 12 12 12 13 14 15 16 17 18 19 20 20 20 22 23 24 25 26 26 25 26 26 28 29 29 30 29 29 28 26 25 25 26 27 27 28
2 2 3 4 4 7 6 6 7 3 4 2 5 3 1 1 0 1 1 2 3 4 3 1 1 2 2 1 2 4 5 7 8 7 6 5 5 4 3 2 2 4 6 7 9 10 11 12 12 12 13 13 14 14 14 16 17 18 18 19 19 20 21 22 23 24 24 25 25 25 25 26 27 28 28 29 29 28 27 25 25 25 27 27 28 29
2 3 1 1 1 6 10 9 6 6 4 3 4 1 2 2 1 1 2 4 5 3 2 2 3 3 2 3 4 4 3 2 2 3 3 3 3 3 3 4 5 6 8 10 10 10 10 11 12 13 14 14 15 16 17 19 19 19 20 20 21 22 22 23 23 24 25 25 25 25 26 26 27 28 28 28 28 27 26 25 23 24 26 27 28 30
2 3 1 1 1 4 8 8 7 3 4 6 3 1 2 2 2 3 4 5 6 5 4 4 4 4 4 3 4 3 2 2 1 2 3 3 2 1 1 3 6 7 7 8 8 9 9 10 11 12 13 14 15 17 18 19 19 19 20 21 21 22 22 23 23 24 25 25 26 26 27 27 27 28 28 28 27 26 25 24 23 24 25 27 29 30
2 2 1 1 1 2 5 5 3 4 7 4 2 1 1 2 1 1 4 5 4 5 5 4 5 4 2 1 0 2 3 4 6 5 5 5 4 4 5 5 2 3 6 6 7 7 8 9 10 11 12 14 15 17 18 18 18 20 20 21 21 22 23 24 25 26 27 27 28 27 28 27 27 27 27 27 26 25 24 23 23 23 25 27 29 28
4 2 1 1 1 1 1 3 4 5 5 5 3 0 1 1 1 2 2 4 4 4 5 2 3 4 3 3 3 4 4 5 7 6 4 5 5 6 8 9 7 4 2 5 6 7 7 8 9 10 11 13 14 15 16 16 18 18 19 20 21 22 23 24 25 26 27 28 27 27 26 25 25 25 25 25 25 24 23 23 22 23 25 26 27 26
4 1 1 0 1 2 2 3 5 5 3 5 5 3 1 2 2 2 4 3 4 5 7 4 0 2 3 3 3 3 4 5 4 3 3 5 5 7 7 7 7 6 4 3 4 6 7 8 8 9 9 10 11 12 13 14 15 15 16 17 18 19 20 21 21 22 23 23 23 23 23 23 23 23 24 25 24 23 23 22 22 23 25 26 27 27
5 3 2 3 1 2 3 1 2 1 3 5 6 5 3 1 2 3 6 4 5 5 8 5 2 1 1 2 2 4 5 5 3 3 2 4 5 5 5 5 4 3 3 3 4 4 5 7 7 8 8 9 9 10 11 12 13 13 14 14 14 16 17 17 17 17 18 18 19 21 22 22 23 24 24 24 24 23 24 24 24 25 26 27 27 27
5 4 2 1 1 1 3 1 3 3 3 3 5 6 4 1 1 6 5 5 6 5 7 5 3 2 4 5 3 2 3 2 2 2 2 3 4 5 4 4 3 2 1 1 1 3 4 5 6 7 7 8 8 9 10 11 12 12 12 13 14 15 14 13 12 13 14 16 18 21 23 23 24 25 25 25 24 24 25 25 26 26 26 26 27 27
2 2 1 1 1 2 3 2 4 4 3 3 4 3 2 3 4 5 2 6 5 3 6 4 3 3 4 6 5 2 1 1 1 0 1 3 5 6 6 5 3 2 1 1 2 3 3 4 5 5 5 6 6 6 7 8 9 9 10 12 13 12 11 10 11 12 13 15 17 19 22 23 25 25 26 26 25 25 26 26 26 27 27 26 27 28
0 1 1 2 2 2 3 2 3 3 3 3 2 1 1 1 1 2 5 7 4 3 5 5 4 3 3 2 3 2 2 1 2 3 5 6 7 7 6 5 3 2 2 2 3 4 4 5 5 5 5 5 5 5 6 6 6 6 8 8 7 7 8 10 12 13 14 15 16 18 20 21 23 25 25 26 26 27 27 27 27 28 29 29 29 30
3 1 2 2 3 1 2 2 2 3 4 3 2 0 1 1 3 5 6 5 2 5 5 4 3 2 2 2 3 5 6 6 6 7 7 8 7 6 5 5 3 2 1 2 3 4 4 5 6 6 6 6 5 6 6 6 6 7 8 5 4 6 10 13 14 16 17 17 17 18 19 20 21 23 24 26 27 28 29 29 29 30 31 32 33 34
3 4 2 2 2 3 2 0 2 3 4 4 4 3 3 3 5 6 4 2 2 2 2 1 0 1 3 5 7 8 9 7 5 5 5 5 6 6 5 5 4 3 3 3 3 3 4 5 6 6 6 5 5 6 6 6 7 7 6 5 7 10 12 13 15 17 18 19 19 19 19 20 21 22 23 24 26 28 29 30 31 32 33 34 35 35
5 5 3 1 3 4 5 7 6 5 6 7 9 11 9 6 6 5 2 2 3 2 2 1 3 6 8 11 11 10 9 7 5 5 5 5 5 6 6 7 6 6 6 6 5 5 4 5 6 6 6 6 5 5 5 5 6 5 5 6 9 10 11 12 14 15 16 18 19 20 21 21 22 22 23 24 25 27 29 30 31 33 34 34 35 36
4 3 4 2 3 5 8 13 13 13 15 14 15 16 15 11 8 6 4 3 3 3 4 6 9 11 13 13 12 10 8 7 7 6 6 6 6 6 6 7 7 8 7 7 7 6 5 5 6 6 6 5 5 4 5 5 5 4 5 7 9 10 11 12 13 13 14 15 16 18 20 22 23 24 25 25 26 27 28 29 30 31 32 33 35 35
3 6 4 1 2 2 4 7 7 5 7 8 8 11 15 13 11 10 10 8 7 7 9 10 12 12 12 10 9 8 7 7 7 7 6 5 5 5 5 6 5 5 5 5 5 4 4 5 4 4 5 5 6 6 6 6 6 6 7 9 10 11 12 12 13 13 13 13 15 16 18 19 21 22 24 26 27 28 29 30 31 31 32 33 34 34
2 6 5 3 3 3 5 11 14 14 15 14 12 12 15 15 14 13 12 11 12 13 14 13 11 11 9 8 8 9 8 8 8 7 6 5 4 5 5 5 4 4 3 3 2 3 3 4 4 5 5 6 8 9 9 9 9 9 10 11 12 13 14 14 14 14 13 13 14 15 17 18 19 20 21 23 25 27 28 30 31 32 33 34 34 34
7 6 4 3 2 3 9 15 17 17 18 17 14 13 15 16 15 13 12 12 14 13 12 10 8 8 8 7 8 10 11 10 9 9 9 7 6 5 6 6 6 5 6 6 6 6 6 6 7 9 9 9 10 11 11 11 10 11 11 13 14 15 15 16 16 16 16 16 16 16 17 17 18 19 20 21 23 24 25 26 28 30 31 32 32 33
7 4 3 3 0 4 7 7 6 4 6 9 9 8 9 11 12 12 11 11 11 9 8 7 7 8 8 9 10 12 13 11 10 10 11 10 8 8 8 9 9 8 8 10 10 10 11 11 11 12 12 12 13 13 12 12 12 12 14 15 16 16 16 16 17 17 18 18 19 18 18 18 19 19 20 21 22 23 24 24 25 27 28 28 28 29
13 9 8 7 5 7 7 6 5 5 4 4 4 3 4 6 9 11 11 10 9 9 9 9 9 10 10 11 12 13 13 11 10 10 10 10 10 11 11 12 13 13 12 13 13 13 13 14 15 15 15 15 15 14 13 13 13 14 16 17 18 18 18 18 18 17 17 17 18 19 20 20 20 21 21 22 22 23 24 24 25 26 27 27 27 27
Wind_Direction
164 228 249 240 244 239 225 208 217 235 234 217 213 233 233 247 258 249 254 255 164 254 264 249 253 256 254 257 250 233 222 221 220 211 207 205 198 192 190 190 191 190 189 193 196 196 197 198 200 202 201 199 198 197 197 200 205 204 204 207 205 205 208 208 208 210 213 217 210 201 189 175 186 208 204 201 214 243 294 324 330 331 331 336 346 353
150 242 252 246 244 249 248 222 221 236 235 226 227 255 259 243 256 257 248 251 169 161 269 266 268 262 245 252 249 233 218 218 220 211 208 207 196 192 190 188 187 185 187 191 192 194 196 199 201 202 203 202 202 202 201 205 207 203 205 209 208 206 206 208 210 210 214 218 209 198 182 171 192 212 209 209 215 230 274 314 324 326 329 334 346 353
219 243 253 262 261 250 256 235 219 229 226 230 227 243 260 240 256 272 259 255 211 164 263 266 267 265 247 244 242 231 219 216 218 213 210 208 195 186 186 185 183 182 185 189 190 192 195 199 201 202 203 204 206 206 207 209 206 202 207 209 208 208 206 206 209 209 213 214 202 185 171 177 205 217 215 216 219 234 264 303 315 321 327 335 350 354
266 255 257 273 271 245 254 237 212 226 224 221 215 222 247 222 172 261 269 245 187 185 234 260 264 270 256 248 242 231 226 220 217 214 212 211 202 190 187 187 186 186 188 189 190 192 194 197 200 202 204 205 207 209 210 208 203 204 210 211 210 211 209 205 203 206 210 206 193 178 169 183 208 215 213 215 221 237 257 293 306 319 329 338 355 354
261 272 284 289 268 243 258 247 208 220 229 220 213 215 239 230 197 230 269 356 318 218 225 243 283 282 245 241 250 229 224 225 219 212 210 211 206 195 187 186 188 190 192 191 190 193 195 198 202 204 207 207 208 211 210 207 206 211 213 213 213 213 213 208 201 202 205 199 189 178 173 187 203 207 204 202 210 228 250 282 301 318 333 345 357 355
260 273 290 293 277 256 251 248 215 212 229 234 220 219 233 236 216 229 263 350 329 276 219 179 232 272 214 220 237 217 212 217 209 201 201 202 197 187 181 182 187 191 193 195 195 196 198 200 202 204 207 209 211 211 208 207 211 214 214 215 216 213 212 209 203 203 201 197 191 179 179 193 202 204 197 191 202 220 244 272 298 320 340 354 1 2
261 270 253 246 280 268 250 252 225 204 222 259 218 209 223 229 221 223 196 162 227 271 229 163 194 261 235 219 218 203 209 208 197 187 183 184 183 181 181 183 188 191 191 194 197 198 200 202 203 205 208 211 212 210 208 210 213 214 216 218 219 215 212 207 204 204 198 195 189 179 184 199 208 211 203 201 208 215 248 268 293 320 349 7 12 13
235 262 223 199 265 266 261 265 228 187 204 258 186 182 206 214 219 217 193 198 232 291 287 195 199 240 263 237 201 190 207 209 201 194 176 175 177 178 181 185 190 193 193 195 197 199 203 205 207 209 210 212 212 211 211 212 213 215 217 217 216 215 213 206 202 204 199 193 185 178 183 195 206 211 207 209 209 206 229 251 278 319 20 32 28 24
172 237 233 204 282 279 256 265 235 190 207 247 24 167 188 200 211 205 196 221 239 273 273 209 187 217 262 249 180 179 201 212 205 199 185 175 174 174 179 186 193 197 197 200 202 203 206 208 210 211 212 212 213 213 214 214 215 217 218 217 214 212 210 205 199 201 200 193 182 179 182 190 201 207 204 203 198 196 209 223 228 195 74 54 42 32
261 249 233 168 254 253 237 253 235 201 214 261 10 183 164 170 192 184 197 224 223 232 256 209 174 198 250 212 177 180 198 210 202 193 189 181 180 179 181 187 194 197 199 203 206 209 211 212 212 211 211 212 213 216 215 215 218 219 217 216 215 211 208 204 197 198 199 191 182 181 179 182 194 204 204 199 189 190 197 198 199 189 97 65 49 38
267 270 279 211 229 236 257 270 239 214 225 269 360 227 183 154 163 168 199 221 225 236 242 200 178 197 257 197 188 192 195 200 193 182 184 182 181 183 186 190 194 197 199 202 207 211 213 213 211 211 213 214 216 218 216 216 219 220 218 215 213 213 211 203 196 196 197 190 183 182 179 180 190 199 202 198 188 189 196 195 197 209 160 69 50 38
271 262 248 234 231 230 301 289 239 220 233 248 303 263 230 178 163 175 193 198 222 255 251 195 175 185 230 216 198 205 190 185 190 183 175 176 181 184 188 192 195 198 199 200 203 206 209 211 210 211 215 217 218 218 215 216 218 219 217 213 209 209 209 203 197 197 198 193 186 184 182 184 191 197 199 197 192 195 203 209 213 230 244 61 52 38
290 226 232 276 235 206 245 309 269 201 209 220 233 264 252 186 173 212 204 208 223 243 254 180 161 173 228 236 214 212 199 180 184 187 183 182 184 186 188 190 193 196 198 199 202 204 208 210 209 209 211 214 216 216 215 216 216 216 215 212 208 206 205 203 200 200 201 195 189 186 186 188 192 196 199 199 198 201 208 217 223 238 262 281 45 38
315 300 294 319 276 189 188 336 327 309 237 222 213 229 240 206 223 231 203 223 236 234 200 137 152 203 251 243 206 205 212 175 172 187 193 190 184 182 183 184 189 194 198 201 205 208 210 211 210 210 212 215 217 217 216 216 216 215 213 210 209 206 203 203 203 204 203 196 190 189 189 192 194 196 200 202 202 205 211 218 223 235 257 272 302 34
313 310 286 291 300 164 188 216 179 237 265 255 235 235 263 255 236 256 219 215 233 203 121 126 154 217 165 191 239 221 231 142 154 174 182 180 174 172 174 180 187 194 200 205 209 211 212 213 213 214 216 218 220 220 218 216 217 216 212 209 209 205 202 203 205 205 202 196 192 191 192 195 196 198 204 205 206 209 213 217 222 231 247 264 277 348
258 265 250 268 239 172 201 217 160 236 270 238 256 270 297 338 298 277 254 237 210 104 127 142 171 248 151 307 309 294 138 100 124 145 154 158 162 165 171 182 190 195 203 209 210 212 213 214 215 216 218 221 223 223 220 218 218 215 211 209 209 207 204 203 205 205 202 198 196 193 194 197 198 201 205 208 209 211 215 218 222 230 239 254 272 293
303 273 280 309 295 169 160 157 153 271 308 300 298 309 305 295 266 275 265 260 263 90 25 251 262 332 18 12 347 21 74 81 102 133 146 152 159 167 174 184 193 199 206 210 211 212 212 212 214 216 220 223 222 221 220 220 220 217 213 211 210 208 206 204 205 205 204 202 200 196 197 199 200 202 206 210 213 215 217 219 223 230 236 245 267 284
284 284 291 303 309 349 125 135 157 210 229 322 321 324 298 255 221 270 282 331 2 71 335 332 341 334 35 78 359 34 71 84 113 135 145 155 163 172 179 187 196 202 206 210 212 212 211 210 212 215 220 224 223 222 221 222 222 219 216 213 212 209 206 204 205 206 206 205 204 201 202 203 201 201 206 213 217 219 220 221 225 231 237 242 255 274
223 290 295 237 239 304 102 119 355 260 208 230 278 332 323 271 287 294 261 307 348 341 296 345 348 316 235 125 353 27 66 88 145 156 152 161 172 177 182 189 196 201 205 209 213 214 212 212 213 215 220 224 224 225 225 224 223 219 215 213 213 212 208 206 206 206 207 207 207 205 206 206 203 203 207 213 218 220 221 223 227 232 237 239 245 260
222 279 288 276 272 306 28 85 335 300 263 223 271 9 107 229 278 301 299 309 311 212 222 9 7 326 270 233 255 353 7 43 102 179 168 170 181 183 186 192 196 200 204 209 214 215 213 215 219 221 223 225 225 226 226 224 221 217 212 211 212 213 211 209 207 206 207 208 207 206 206 206 206 207 209 214 219 222 224 225 227 232 235 235 239 249
327 231 263 295 324 348 356 17 106 251 295 2 360 7 351 301 318 272 278 302 145 166 173 115 55 286 270 244 262 310 309 33 102 225 177 174 186 190 193 197 200 203 207 211 216 218 217 219 224 225 225 227 227 227 226 224 220 217 213 211 212 212 211 209 207 207 208 209 208 206 206 207 207 210 214 217 221 225 227 227 227 231 234 233 236 242
238 237 256 300 326 311 236 182 162 192 159 89 65 30 331 303 336 323 295 58 98 111 176 158 173 280 291 299 303 304 297 282 178 283 224 178 188 197 200 202 205 207 211 214 218 222 223 225 226 226 225 225 225 226 225 223 219 215 213 213 213 214 213 211 209 208 209 210 210 209 208 208 209 211 216 219 223 226 229 230 229 230 233 233 234 238
166 139 268 278 275 259 223 117 104 123 110 110 133 129 230 288 322 291 287 332 333 323 232 172 111 330 288 297 306 294 290 292 264 257 239 177 186 199 203 206 210 211 214 219 223 227 230 231 230 227 224 225 226 225 224 223 219 214 212 214 215 216 216 214 213 213 212 213 216 214 211 211 212 213 217 221 224 227 230 233 232 231 232 233 234 234
103 25 305 285 280 299 21 78 60 26 88 88 328 208 181 288 272 253 275 335 325 332 331 348 77 58 331 327 328 320 319 328 326 246 202 171 183 199 207 210 214 215 219 224 226 230 234 234 233 228 224 224 225 224 222 220 219 216 213 214 216 217 219 219 219 218 216 218 222 223 221 220 219 218 221 224 226 228 232 234 235 235 234 235 235 234
330 291 315 332 331 344 0 4 358 345 24 31 291 236 172 289 277 265 265 278 331 349 10 52 79 60 330 341 2 4 14 39 50 62 139 171 182 195 206 211 213 216 220 223 224 226 228 231 233 229 225 224 223 221 218 217 217 216 214 215 218 220 221 222 223 222 221 222 226 229 230 229 229 228 229 231 230 231 234 235 236 237 237 237 236 234
236 262 305 62 336 317 323 320 324 326 322 324 303 289 14 326 298 283 263 278 5 360 81 74 39 352 333 352 16 20 25 39 41 57 93 145 170 181 193 201 206 211 216 220 223 223 225 231 233 228 224 223 222 220 216 214 215 216 216 218 221 224 225 225 226 227 227 228 232 235 236 237 238 238 239 240 238 236 236 237 238 239 240 241 238 235
115 264 208 157 195 241 261 263 282 350 314 295 311 323 345 360 304 264 286 21 346 317 61 62 281 317 344 352 6 7 12 20 19 40 61 84 125 160 181 190 198 207 213 218 221 222 225 229 231 227 221 218 217 217 216 215 215 217 219 221 223 227 229 229 230 231 233 234 236 238 240 241 243 245 247 247 245 243 241 240 241 241 243 243 239 235
85 297 275 187 223 243 253 269 308 19 281 274 306 317 326 345 352 351 354 2 326 323 48 15 311 355 351 341 348 348 352 358 354 9 25 47 89 134 168 184 195 204 211 215 215 217 222 225 226 223 218 213 210 210 212 215 218 220 223 226 228 230 230 230 230 231 232 234 236 238 240 242 245 247 250 252 251 251 248 245 245 245 243 242 239 235
115 255 251 224 268 260 252 275 299 242 249 269 286 293 309 334 8 36 356 330 345 20 47 341 346 5 333 326 334 330 325 321 328 351 8 27 64 111 145 173 195 204 211 213 214 216 218 220 223 221 215 211 209 209 209 211 215 219 223 226 229 230 230 230 230 232 234 236 238 239 241 244 247 249 252 255 256 255 253 248 246 246 243 240 239 236
115 253 234 227 289 289 271 272 281 227 264 284 278 280 293 300 328 71 2 319 3 44 346 326 345 340 306 296 295 305 320 321 326 353 21 38 52 87 126 162 194 205 211 213 214 217 218 218 220 220 217 215 211 209 209 208 211 214 219 223 226 229 231 233 236 237 238 239 240 242 245 247 249 249 251 254 256 257 256 251 247 245 242 239 239 236
35 299 271 94 309 303 308 351 312 248 250 268 280 290 302 308 355 85 75 321 19 24 319 326 11 1 309 278 290 316 330 328 330 354 15 26 40 69 133 180 204 206 208 215 219 221 222 222 221 221 223 223 221 220 219 219 220 221 224 227 229 232 234 236 238 239 239 240 241 243 245 246 246 246 247 250 252 253 254 252 246 242 240 239 239 236
25 341 349 39 349 292 295 9 333 274 193 260 306 327 5 40 14 254 238 195 161 152 344 357 24 2 274 291 318 324 323 321 327 348 2 6 16 19 11 228 220 215 214 226 233 234 233 232 230 229 231 232 234 236 236 236 236 235 235 236 237 238 237 237 238 239 240 241 241 242 242 242 242 241 242 244 247 250 252 249 243 239 237 236 236 235
66 22 340 19 352 279 289 336 328 351 60 350 306 326 335 246 294 311 297 244 209 172 130 93 184 206 222 313 337 303 298 314 328 347 354 343 339 340 334 312 252 240 232 228 229 231 234 234 232 233 235 236 239 241 241 242 241 241 242 241 241 241 240 240 241 241 241 241 241 241 240 239 239 239 239 241 244 248 249 247 242 237 235 235 236 237
61 58 358 15 352 282 297 325 352 32 38 277 260 228 231 234 145 137 265 256 238 206 184 236 237 228 220 194 205 229 231 236 295 332 351 342 330 315 281 255 246 240 231 226 225 223 223 224 224 225 227 229 232 233 234 236 236 237 238 237 238 238 239 240 241 242 243 242 242 242 240 239 239 239 239 241 243 245 246 245 242 239 236 235 236 237
37 61 73 115 137 278 308 352 30 23 252 243 244 247 259 261 208 228 271 264 233 221 243 262 253 243 247 238 221 217 197 167 133 88 85 82 85 112 197 227 230 225 217 218 224 223 220 219 218 219 219 219 220 222 224 225 227 228 229 230 231 233 235 237 239 240 241 242 242 242 241 241 240 239 239 240 242 244 244 243 241 238 235 234 234 236
115 117 132 131 172 304 340 21 39 280 266 275 341 277 260 335 339 315 332 308 246 204 199 236 263 263 280 320 16 105 97 98 94 96 103 102 99 91 76 71 80 210 209 211 217 220 223 222 220 220 219 217 218 220 220 221 223 224 226 227 229 232 233 235 236 237 238 238 238 239 240 240 239 237 237 238 240 243 243 240 238 236 235 235 236 238
123 122 82 356 354 63 15 283 287 320 327 329 343 209 185 328 318 114 47 329 289 201 178 197 305 319 1 52 92 90 84 91 85 79 89 97 86 70 61 59 59 69 165 200 209 214 217 218 218 220 221 222 223 224 224 225 226 228 229 230 232 234 235 237 238 239 238 237 236 236 236 236 236 234 233 235 237 239 240 239 237 236 236 237 237 238
91 97 177 262 326 90 76 310 329 12 336 276 274 281 293 300 278 125 90 346 298 214 188 181 343 327 345 45 70 51 54 65 46 31 67 76 64 57 55 55 57 61 79 128 178 200 207 212 215 217 221 225 227 228 229 230 231 233 235 236 238 240 241 244 245 244 242 240 235 232 231 232 232 231 231 234 234 236 239 240 239 239 240 240 239 239
62 55 103 93 27 65 80 338 292 286 259 248 261 297 345 335 231 91 63 337 285 206 185 187 184 228 226 102 71 36 51 52 345 313 39 51 34 32 32 30 35 46 67 94 126 158 180 198 207 211 216 219 222 226 229 231 232 235 237 238 241 244 246 249 251 251 251 247 239 232 229 229 229 228 229 231 232 233 237 240 242 245 245 244 243 242
41 19 25 51 271 137 121 206 248 237 238 242 258 292 340 8 122 73 54 296 263 187 173 179 164 158 162 151 139 91 74 73 293 306 19 11 352 352 349 347 353 359 44 101 138 153 165 180 187 197 206 211 217 224 227 231 235 238 239 240 241 243 245 249 250 250 250 246 240 236 233 231 231 230 230 231 232 233 237 238 242 246 248 247 246 245
13 10 33 145 180 161 161 244 282 258 242 263 266 269 339 3 44 83 154 262 266 172 158 141 112 126 151 166 176 172 97 138 191 224 309 304 316 323 318 315 318 302 255 224 215 200 194 194 192 197 204 207 216 223 227 235 239 242 243 244 247 252 255 252 245 240 237 236 235 235 235 234 234 235 234 234 235 236 239 240 243 246 249 249 249 249
123 30 46 122 114 139 167 215 300 287 252 244 237 197 66 36 93 185 256 292 296 170 146 117 109 105 95 163 204 252 330 325 272 279 288 296 302 303 302 306 306 283 253 227 217 213 211 212 212 213 214 217 223 227 230 237 240 240 245 250 259 266 256 243 237 233 231 231 231 231 232 233 234 236 237 237 238 239 240 241 243 245 247 249 250 251
173 186 270 214 177 129 49 30 346 291 260 213 182 163 54 159 232 276 308 321 247 173 146 124 130 96 35 345 316 317 314 315 312 303 300 303 304 304 304 304 302 291 268 215 209 215 216 217 218 218 221 224 228 234 239 241 238 237 239 238 226 226 228 228 228 229 228 229 230 229 231 232 233 235 236 237 239 241 241 242 242 244 245 247 248 250
198 189 228 250 196 124 76 243 203 215 216 179 175 228 254 270 295 308 322 310 234 193 164 154 130 357 330 324 324 316 312 321 324 309 303 301 300 302 299 295 296 296 288 274 257 240 232 235 235 235 241 243 242 246 247 245 245 244 239 232 224 224 226 226 227 229 230 232 233 233 233 234 235 237 238 238 240 241 242 242 243 244 245 246 248 249
227 191 161 191 208 182 204 231 240 261 260 240 243 260 271 290 304 306 306 296 289 267 243 280 319 312 309 313 314 313 319 329 329 320 319 316 309 303 296 291 292 293 293 292 287 274 261 260 258 258 262 262 259 262 261 259 262 261 251 247 246 244 243 242 240 240 239 239 238 238 238 238 238 238 239 239 240 242 243 243 244 245 246 247 249 250
235 184 139 162 251 270 265 255 257 273 277 271 267 266 264 267 273 277 287 284 243 230 261 288 297 298 303 309 311 320 331 329 328 330 328 326 326 317 308 302 296 292 292 287 278 269 256 250 250 253 260 266 268 269 271 275 280 278 265 259 261 263 262 262 261 261 258 254 251 248 245 244 243 243 243 243 243 244 245 245 246 247 247 249 250 251
226 179 178 214 280 305 282 257 244 249 272 295 298 268 248 246 252 261 271 268 245 245 272 287 290 292 298 306 311 321 327 324 327 331 325 326 332 328 327 328 317 305 300 284 269 257 243 233 234 242 256 273 281 281 283 286 287 284 279 274 273 274 274 273 274 274 271 268 265 260 257 254 252 251 250 249 249 250 249 249 250 251 251 252 253 254
158 167 193 214 188 190 259 273 273 271 275 286 292 268 246 244 251 258 265 264 254 256 271 282 285 285 291 303 310 310 312 316 321 318 310 311 321 329 339 341 337 335 327 306 285 269 254 250 256 261 269 281 286 288 290 290 290 288 285 284 283 280 279 279 279 278 275 272 268 264 262 261 258 257 256 255 255 255 255 256 257 257 258 260 261 262
133 159 194 186 197 275 285 280 277 281 283 275 263 256 254 251 248 247 248 251 252 259 269 275 275 278 288 299 304 304 305 309 310 305 300 297 302 317 327 325 322 321 310 303 304 298 289 285 282 279 281 283 284 285 285 285 286 287 286 286 286 284 284 282 279 277 275 273 271 269 267 265 264 263 262 261 260 260 260 261 261 262 263 264 265 265
141 178 185 138 204 274 268 256 243 262 278 254 236 248 262 247 230 221 216 222 234 245 254 257 260 271 284 293 299 300 299 300 300 295 291 289 290 294 301 307 308 304 298 297 298 296 294 293 287 281 280 279 279 282 283 283 284 285 287 287 287 287 288 286 282 279 277 274 273 273 272 271 271 270 269 268 266 265 264 263 263 264 265 265 265 266
194 201 181 171 203 234 250 257 233 224 247 235 211 238 256 225 212 206 200 201 212 225 237 248 255 263 274 283 288 290 290 293 295 290 287 287 283 281 286 293 297 297 297 296 295 294 293 291 286 281 279 279 280 281 282 284 284 284 286 288 288 288 289 288 287 286 283 279 277 275 274 273 273 272 273 273 272 271 269 267 265 265 266 267 267 266